Weather Roundup
Issued by NWS Corpus Christi, TX

Home | Current Version | Previous Version | Text Only | Print | Product List | Glossary On
Versions: 1 2 3 4 5 6 7 8 9 10 11 12 13 14 15 16 17 18 19 20 21 22 23 24 25 26 27 28 29 30 31 32 33 34 35 36 37 38 39 40 41 42 43 44 45 46 47 48 49 50
000
ASUS44 KCRP 051310
HRRCRP

SOUTH TEXAS REGIONAL WEATHER ROUNDUP
NATIONAL WEATHER SERVICE CORPUS CHRISTI TX
800 AM CDT SUN JUL 05 2015


TXZ229>244-051400-
...CORPUS CHRISTI AREA OBSERVATIONS...

CITY           SKY/WX    TMP DP  RH WIND       PRES   REMARKS
CORPUS CHRISTI PTSUNNY   81  77  88 S12       30.02R
NAS CORPUS CHR PTSUNNY   81  77  88 S15       30.02R
ROCKPORT       LGT RAIN  83  76  79 S12       30.02R HX  91
KINGSVILLE NAS CLOUDY    82  80  94 SE15      30.01S HX  94
ALICE          CLOUDY    79  77  94 SE7       30.01R FOG
FALFURRIAS     CLOUDY    78  76  93 E6        30.00S
$$

...VICTORIA AREA OBSERVATIONS...

CITY           SKY/WX    TMP DP  RH WIND       PRES   REMARKS
VICTORIA       PTSUNNY   77  77 100 SE7       30.05R FOG
BEEVILLE       FAIR     N/A N/A N/A SE5       30.03R HAZE
PLEASANTON     CLOUDY    74  72  92 E3        30.05R
SAN ANTONIO    PTSUNNY   77  72  84 SE9       30.06R
$$

...LAREDO AREA OBSERVATIONS...

CITY           SKY/WX    TMP DP  RH WIND       PRES   REMARKS
LAREDO         PTSUNNY   76  71  84 SE13      30.01R
COTULLA        LGT RAIN  76  72  87 SE8       30.01R
DEL RIO        PTSUNNY   76  68  76 E14       29.99R
MCALLEN        CLOUDY    81  77  88 SE12      30.00R FOG
HEBBRONVILLE     N/A     76  74  93 SE10      30.03R FOG
$$

...OTHER TEXAS OBSERVATIONS...

CITY           SKY/WX    TMP DP  RH WIND       PRES   REMARKS
BROWNSVILLE    CLOUDY    81  77  88 SE14      30.01R
HOUSTON        PTSUNNY   80  78  94 SE6       30.07R
COL. STATION   CLOUDY    80  77  90 S7        30.07R
AUSTIN         CLOUDY    75  74  96 S5        30.06R
WACO           SUNNY     78  73  84 S13       30.05R
FORT WORTH     MOSUNNY   79  73  82 S14       30.02R
WICHITA FALLS  MOSUNNY   79  71  76 S13       29.99R
LUBBOCK        PTSUNNY   74  66  76 S14       30.06R
EL PASO        PTCLDY    71  66  84 SE7       30.05R
$$

...MARINE OBSERVATIONS...

STATION/POSITION TIME  SKY/WX   TEMP    WIND        PRES    VSBY  WAVE   SWELL
                                AIR SEA DIR/SP/G                  HT/PER HT/PER
                 (UTC)          (F)     (DEG/KT/KT) (MB)    (MI)  (FT/S) (FT/S)
PORT ARANSAS     1200            81 81  150/ 14/ 16 1016.9R
BUOY 90 E PORT A NOT AVBL
BUOY 45 SE BAFFI 1250            83 83  150/ 17/ 19 1016.2R         5/ 7
BUOY 200 E PT IS 1250            84 84  140/ 14/ 16 1018.9R         3/ 6
BUOY 15 E GALVES 1250            84 83  190/ 14/ 16 1017.8R         3/ 6
$$


USA.gov is the U.S. government's official web portal to all federal, state and local government web resources and services.